Location: Ethel Rock
(53.4667°N, 4.5667°W)
Time: 05:22:50
(UTC+00:00)

In-Cosmos 22 - Pass Details

Date: 24 October 2020
Orbit: 785 x 876 km, 81.2° (Epoch: 25 November)

Event Time Altitude Azimuth Distance (km) Brightness Sun altitude
Exits shadow 04:41:46 - 190° (S) 2,701 6.6 -21.5°
Reaches altitude 10° 04:42:39 10° 190° (S) 2,356 6.3 -21.4°
Maximum altitude 04:47:59 88° 101° (E) 812 4.0 -20.6°
Drops below altitude 10° 04:53:27 10° 14° (NNE) 2,421 6.8 -19.8°
Sets 04:55:53 0° 14° (NNE) 3,372 7.6 -19.4°
